H1 CPF 2 NER 2024 4 18 9 109 01 glonass107 H2 0706501 9107 32393 2024 4 18 0 0 0 2024 4 21 23 45 0 900 1 1 0 0 0 1 H9 10 0 60418 0.00000 0 -19008430.443 4063140.346 16503881.914 10 0 60418 900.00000 0 -20887909.061 3826671.800 14118766.680 10 0 60418 1800.00000 0 -22470581.191 3759719.439 11459163.025 10 0 60418 2700.00000 0 -23712913.536 3821434.075 8576809.674 10 0 60418 3600.00000 0 -24582376.171 3964018.021 5527762.681 10 0 60418 4500.00000 0 -25058698.279 4134979.561 2371300.573 10 0 60418 5400.00000 0 -25134626.661 4279590.373 -831232.481 10 0 60418 6300.00000 0 -24816155.990 4343440.957 -4017622.459 10 0 60418 7200.00000 0 -24122221.946 4274985.168 -7125996.379 10 0 60418 8100.00000 0 -23083871.119 4027965.553 -10096024.381 10 0 60418 9000.00000 0 -21742943.394 3563616.470 -12870089.362 10 0 60418 9900.00000 0 -20150322.963 2852551.569 -15394401.418 10 0 60418 10800.00000 0 -18363831.896 1876255.702 -17620035.708 10 0 60418 11700.00000 0 -16445854.863 628118.142 -19503874.133 10 0 60418 12600.00000 0 -14460794.411 -886036.724 -21009433.299 10 0 60418 13500.00000 0 -12472462.853 -2647944.015 -22107563.604 10 0 60418 14400.00000 0 -10541518.978 -4627419.259 -22777006.878 10 0 60418 15300.00000 0 -8723055.616 -6783384.752 -23004802.610 10 0 60418 16200.00000 0 -7064437.513 -9065359.700 -22786535.629 10 0 60418 17100.00000 0 -5603478.382 -11415353.422 -22126420.881 10 0 60418 18000.00000 0 -4367031.952 -13770084.170 -21037223.753 10 0 60418 18900.00000 0 -3370054.631 -16063432.703 -19540017.297 10 0 60418 19800.00000 0 -2615177.942 -18229029.890 -17663780.501 10 0 60418 20700.00000 0 -2092807.883 -20202871.739 -15444844.611 10 0 60418 21600.00000 0 -1781746.467 -21925853.854 -12926197.322 10 0 60418 22500.00000 0 -1650309.029 -23346120.192 -10156657.303 10 0 60418 23400.00000 0 -1657890.090 -24421128.334 -7189934.249 10 0 60418 24300.00000 0 -1756911.699 -25119344.885 -4083591.924 10 0 60418 25200.00000 0 -1895071.894 -25421499.639 -897933.856 10 0 60418 26100.00000 0 -2017798.025 -25321345.545 2305166.810 10 0 60418 27000.00000 0 -2070800.732 -24825891.795 5463470.522 10 0 60418 27900.00000 0 -2002619.858 -23955099.767 8515583.874 10 0 60418 28800.00000 0 -1767053.733 -22741054.169 11402157.331 10 0 60418 29700.00000 0 -1325367.902 -21226643.646 14067044.302 10 0 60418 30600.00000 0 -648188.657 -19463806.018 16458398.392 10 0 60418 31500.00000 0 283000.054 -17511411.739 18529686.929 10 0 60418 32400.00000 0 1474820.964 -15432874.373 20240600.622 10 0 60418 33300.00000 0 2921474.213 -13293588.304 21557841.430 10 0 60418 34200.00000 0 4604738.194 -11158301.130 22455773.099 10 0 60418 35100.00000 0 6494501.833 -9088530.703 22916921.756 10 0 60418 36000.00000 0 8549807.236 -7140134.783 22932316.838 10 0 60418 36900.00000 0 10720360.065 -5361134.652 22501665.811 10 0 60418 37800.00000 0 12948445.303 -3789883.254 21633359.362 10 0 60418 38700.00000 0 15171168.985 -2453653.734 20344306.972 10 0 60418 39600.00000 0 17322932.608 -1367706.594 18659606.102 10 0 60418 40500.00000 0 19338037.103 -534873.388 16612051.399 10 0 60418 41400.00000 0 21153307.636 54326.848 14241493.457 10 0 60418 42300.00000 0 22710629.480 421044.737 11594059.690 10 0 60418 43200.00000 0 23959288.830 596959.813 8721252.614 10 0 60418 44100.00000 0 24858020.560 622691.443 5678943.351 10 0 60418 45000.00000 0 25376677.213 545829.913 2526280.347 10 0 60418 45900.00000 0 25497449.447 418672.199 -675464.975 10 0 60418 46800.00000 0 25215587.170 295759.357 -3864092.635 10 0 60418 47700.00000 0 24539591.606 231320.675 -6977684.820 10 0 60418 48600.00000 0 23490870.896 276733.529 -9955808.911 10 0 60418 49500.00000 0 22102874.375 478106.933 -12740689.246 10 0 60418 50400.00000 0 20419742.474 874091.309 -15278324.752 10 0 60418 51300.00000 0 18494529.331 1494007.212 -17519531.020 10 0 60418 52200.00000 0 16387072.792 2356372.101 -19420887.125 10 0 60418 53100.00000 0 14161600.857 3467887.384 -20945569.519 10 0 60418 54000.00000 0 11884174.232 4822928.637 -22064057.738 10 0 60418 54900.00000 0 9620070.956 6403560.887 -22754699.197 10 0 60418 55800.00000 0 7431221.204 8180079.023 -23004122.982 10 0 60418 56700.00000 0 5373797.917 10112051.711 -22807495.378 10 0 60418 57600.00000 0 3496062.191 12149826.392 -22168612.604 10 0 60418 58500.00000 0 1836551.834 14236433.887 -21099829.132 10 0 60418 59400.00000 0 422687.190 16309814.601 -19621822.737 10 0 60418 60300.00000 0 -730148.844 18305274.865 -17763200.352 10 0 60418 61200.00000 0 -1619019.163 20158072.200 -15559951.545 10 0 60418 62100.00000 0 -2253312.939 21806022.584 -13054759.326 10 0 60418 63000.00000 0 -2654103.793 23192021.503 -10296180.619 10 0 60418 63900.00000 0 -2853013.078 24266373.722 -7337711.447 10 0 60418 64800.00000 0 -2890626.382 24988834.218 -4236754.213 10 0 60418 65700.00000 0 -2814530.227 25330274.389 -1053506.643 10 0 60418 66600.00000 0 -2677052.176 25273902.985 2150206.210 10 0 60418 67500.00000 0 -2532800.275 24815989.690 5312134.153 10 0 60418 68400.00000 0 -2436106.454 23966060.236 8370814.505 10 0 60418 69300.00000 0 -2438482.855 22746553.922 11266771.126 10 0 60418 70200.00000 0 -2586199.617 21191957.245 13943675.905 10 0 60418 71100.00000 0 -2918087.682 19347449.415 16349449.520 10 0 60418 72000.00000 0 -3463660.727 17267116.084 18437279.485 10 0 60418 72900.00000 0 -4241636.827 15011805.962 20166535.272 10 0 60418 73800.00000 0 -5258923.536 12646719.890 21503562.430 10 0 60418 74700.00000 0 -6510110.442 10238833.177 22422340.075 10 0 60418 75600.00000 0 -7977491.799 7854258.868 22904988.974 10 0 60418 76500.00000 0 -9631619.431 5555661.899 22942120.366 10 0 60418 77400.00000 0 -11432363.710 3399831.872 22533018.826 10 0 60418 78300.00000 0 -13330438.953 1435515.331 21685655.679 10 0 60418 79200.00000 0 -15269330.027 -298402.637 20416532.762 10 0 60418 80100.00000 0 -17187539.889 -1774292.300 18750359.561 10 0 60418 81000.00000 0 -19021064.232 -2976691.526 16719570.004 10 0 60418 81900.00000 0 -20705989.737 -3902699.459 14363688.297 10 0 60418 82800.00000 0 -22181106.973 -4561836.534 11728556.203 10 0 60418 83700.00000 0 -23390428.366 -4975378.328 8865436.945 10 0 60418 84600.00000 0 -24285505.445 -5175192.857 5830013.394 10 0 60418 85500.00000 0 -24827448.033 -5202131.954 2681300.476 10 0 60419 0.00000 0 -24988560.561 -5104046.134 -519506.312 10 0 60419 900.00000 0 -24753526.908 -4933508.134 -3710225.049 10 0 60419 1800.00000 0 -24120094.091 -4745342.715 -6828896.131 10 0 60419 2700.00000 0 -23099226.724 -4594067.949 -9814987.378 10 0 60419 3600.00000 0 -21714725.881 -4531357.033 -12610567.556 10 0 60419 4500.00000 0 -20002328.911 -4603628.308 -15161427.161 10 0 60419 5400.00000 0 -18008328.253 -4849865.538 -17418124.621 10 0 60419 6300.00000 0 -15787767.199 -5299760.512 -19336938.164 10 0 60419 7200.00000 0 -13402287.962 -5972256.246 -20880705.570 10 0 60419 8100.00000 0 -10917721.526 -6874552.177 -22019536.419 10 0 60419 9000.00000 0 -8401519.030 -8001613.304 -22731383.995 10 0 60419 9900.00000 0 -5920130.730 -9336204.290 -23002466.658 10 0 60419 10800.00000 0 -3536440.368 -10849447.715 -22827531.227 10 0 60419 11700.00000 0 -1307360.257 -12501884.042 -22209953.758 10 0 60419 12600.00000 0 718314.338 -14244990.060 -21161675.917 10 0 60419 13500.00000 0 2501703.682 -16023093.617 -19702977.965 10 0 60419 14400.00000 0 4015221.391 -17775605.939 -17862092.255 10 0 60419 15300.00000 0 5243475.281 -19439479.471 -15674663.959 10 0 60419 16200.00000 0 6183654.581 -20951789.454 -13183068.551 10 0 60419 17100.00000 0 6845388.124 -22252332.073 -10435598.288 10 0 60419 18000.00000 0 7250079.981 -23286130.755 -7485532.599 10 0 60419 18900.00000 0 7429750.901 -24005745.528 -4390109.656 10 0 60419 19800.00000 0 7425434.660 -24373288.333 -1209418.593 10 0 60419 20700.00000 0 7285197.266 -24362058.846 1994766.299 10 0 60419 21600.00000 0 7061863.075 -23957731.247 5160186.675 10 0 60419 22500.00000 0 6810544.439 -23159041.055 8225312.899 10 0 60419 23400.00000 0 6586080.005 -21977942.060 11130544.320 10 0 60419 24300.00000 0 6440490.813 -20439225.742 13819373.153 10 0 60419 25200.00000 0 6420562.710 -18579618.166 16239488.717 10 0 60419 26100.00000 0 6565658.327 -16446391.488 18343799.982 10 0 60419 27000.00000 0 6905852.132 -14095547.689 20091356.114 10 0 60419 27900.00000 0 7460468.391 -11589650.084 21448146.832 10 0 60419 28800.00000 0 8237084.765 -8995392.991 22387766.837 10 0 60419 29700.00000 0 9231044.561 -6381010.796 22891931.391 10 0 60419 30600.00000 0 10425499.096 -3813634.277 22950833.052 10 0 60419 31500.00000 0 11791979.269 -1356704.161 22563332.713 10 0 60419 32400.00000 0 13291473.018 932450.665 21736981.296 10 0 60419 33300.00000 0 14875964.035 3004769.909 20487871.725 10 0 60419 34200.00000 0 16490367.553 4821264.346 18840324.056 10 0 60419 35100.00000 0 18074782.180 6354389.713 16826409.900 10 0 60419 36000.00000 0 19566963.409 7588935.836 14485325.331 10 0 60419 36900.00000 0 20904914.820 8522395.053 11862624.588 10 0 60419 37800.00000 0 22029487.992 9164796.081 9009329.590 10 0 60419 38700.00000 0 22886881.632 9538011.905 5980932.820 10 0 60419 39600.00000 0 23430934.577 9674572.521 2836313.420 10 0 60419 40500.00000 0 23625116.048 9616034.183 -363411.966 10 0 60419 41400.00000 0 23444129.301 9410975.538 -3556080.720 10 0 60419 42300.00000 0 22875061.203 9112706.606 -6679694.399 10 0 60419 43200.00000 0 21918029.502 8776788.579 -9673623.543 10 0 60419 44100.00000 0 20586300.709 8458470.073 -12479783.478 10 0 60419 45000.00000 0 18905873.874 8210148.740 -15043758.178 10 0 60419 45900.00000 0 16914547.796 8078965.705 -17315850.596 10 0 60419 46800.00000 0 14660510.732 8104634.363 -19252039.574 10 0 60419 47700.00000 0 12200511.384 8317594.954 -20814825.459 10 0 60419 48600.00000 0 9597687.054 8737572.430 -21973948.922 10 0 60419 49500.00000 0 6919138.760 9372598.132 -22706969.992 10 0 60419 50400.00000 0 4233353.282 10218536.365 -22999696.971 10 0 60419 51300.00000 0 1607578.102 11259135.982 -22846457.660 10 0 60419 52200.00000 0 -894743.075 12466605.309 -22250208.131 10 0 60419 53100.00000 0 -3216369.138 13802687.088 -21222477.100 10 0 60419 54000.00000 0 -5308396.516 15220189.398 -19783146.810 10 0 60419 54900.00000 0 -7132042.897 16664909.593 -17960074.162 10 0 60419 55800.00000 0 -8660006.647 18077871.797 -15788558.687 10 0 60419 56700.00000 0 -9877346.327 19397785.260 -13310666.743 10 0 60419 57600.00000 0 -10781844.422 20563621.368 -10574424.048 10 0 60419 58500.00000 0 -11383840.621 21517201.606 -7632891.292 10 0 60419 59400.00000 0 -11705542.274 22205688.133 -4543140.064 10 0 60419 60300.00000 0 -11779841.247 22583871.950 -1365148.398 10 0 60419 61200.00000 0 -11648687.347 22616161.703 1839362.788 10 0 60419 62100.00000 0 -11361087.363 22278188.773 5008129.701 10 0 60419 63000.00000 0 -10970814.591 21557959.811 8079558.471 10 0 60419 63900.00000 0 -10533926.210 20456507.060 10993926.659 10 0 60419 64800.00000 0 -10106194.109 18988007.863 13694549.471 10 0 60419 65700.00000 0 -9740558.538 17179367.016 16128887.449 10 0 60419 66600.00000 0 -9484713.060 15069278.455 18249573.465 10 0 60419 67500.00000 0 -9378923.694 12706804.659 20015338.635 10 0 60419 68400.00000 0 -9454175.211 10149532.469 21391818.872 10 0 60419 69300.00000 0 -9730723.608 7461381.847 22352226.202 10 0 60419 70200.00000 0 -10217116.535 4710158.571 22877871.784 10 0 60419 71100.00000 0 -10909723.651 1964952.540 22958530.507 10 0 60419 72000.00000 0 -11792797.259 -706510.232 22592640.141 10 0 60419 72900.00000 0 -12839061.145 -3240452.043 21787331.268 10 0 60419 73800.00000 0 -14010803.267 -5579457.213 20558287.434 10 0 60419 74700.00000 0 -15261426.584 -7674615.115 18929438.276 10 0 60419 75600.00000 0 -16537392.928 -9487303.967 16932491.553 10 0 60419 76500.00000 0 -17780478.204 -10990541.948 14606313.192 10 0 60419 77400.00000 0 -18930243.847 -12169850.322 11996167.453 10 0 60419 78300.00000 0 -19926620.322 -13023593.828 9152832.130 10 0 60419 79200.00000 0 -20712493.567 -13562785.607 6131606.230 10 0 60419 80100.00000 0 -21236185.053 -13810366.452 2991229.834 10 0 60419 81000.00000 0 -21453720.665 -13799990.411 -207262.370 10 0 60419 81900.00000 0 -21330792.498 -13574369.498 -3401731.074 10 0 60419 82800.00000 0 -20844330.710 -13183248.818 -6530142.121 10 0 60419 83700.00000 0 -19983619.130 -12681098.845 -9531772.120 10 0 60419 84600.00000 0 -18750907.609 -12124623.284 -12348386.175 10 0 60419 85500.00000 0 -17161495.367 -11570188.445 -14925364.770 10 0 60420 0.00000 0 -15243281.957 -11071282.972 -17212757.945 10 0 60420 900.00000 0 -13035803.434 -10676114.915 -19166247.943 10 0 60420 1800.00000 0 -10588796.343 -10425447.825 -20747999.369 10 0 60420 2700.00000 0 -7960345.585 -10350765.730 -21927385.340 10 0 60420 3600.00000 0 -5214695.026 -10472844.429 -22681573.367 10 0 60420 4500.00000 0 -2419810.032 -10800788.494 -22995961.799 10 0 60420 5400.00000 0 355207.844 -11331574.255 -22864458.912 10 0 60420 6300.00000 0 3042748.067 -12050117.964 -22289599.723 10 0 60420 7200.00000 0 5579252.586 -12929866.600 -21282498.446 10 0 60420 8100.00000 0 7907606.707 -13933887.118 -19862637.335 10 0 60420 9000.00000 0 9979261.473 -15016409.263 -18057495.527 10 0 60420 9900.00000 0 11756000.490 -16124758.147 -15902024.314 10 0 60420 10800.00000 0 13211278.718 -17201596.405 -13437978.091 10 0 60420 11700.00000 0 14331078.186 -18187382.571 -10713112.971 10 0 60420 12600.00000 0 15114245.529 -19022942.941 -7780267.700 10 0 60420 13500.00000 0 15572297.698 -19652049.009 -4696343.967 10 0 60420 14400.00000 0 15728704.295 -20023891.853 -1521205.327 10 0 60420 15300.00000 0 15617677.048 -20095348.819 1683484.010 10 0 60420 16200.00000 0 15282517.651 -19832946.042 4855457.986 10 0 60420 17100.00000 0 14773594.019 -19214433.027 7933061.481 10 0 60420 18000.00000 0 14146030.890 -18229901.770 10856452.934 10 0 60420 18900.00000 0 13457212.744 -16882401.733 13568772.850 10 0 60420 19800.00000 0 12764205.182 -15188023.409 16017254.878 10 0 60420 20700.00000 0 12121204.352 -13175445.605 18154257.220 10 0 60420 21600.00000 0 11577122.784 -10884964.170 19938193.906 10 0 60420 22500.00000 0 11173414.229 -8367041.758 21334347.538 10 0 60420 23400.00000 0 10942229.809 -5680438.426 22315547.496 10 0 60420 24300.00000 0 10904983.748 -2890000.378 22862700.432 10 0 60420 25200.00000 0 11071389.488 -64198.476 22965162.744 10 0 60420 26100.00000 0 11439007.127 2727481.354 22620947.905 10 0 60420 27000.00000 0 11993321.384 5417187.657 21836764.667 10 0 60420 27900.00000 0 12708346.935 7941283.053 20627885.459 10 0 60420 28800.00000 0 13547735.639 10242747.015 19017847.538 10 0 60420 29700.00000 0 14466338.917 12273302.330 17037992.703 10 0 60420 30600.00000 0 15412159.327 13995177.391 14726854.499 10 0 60420 31500.00000 0 16328608.775 15382431.613 12129404.878 10 0 60420 32400.00000 0 17156977.849 16421789.745 9296175.110 10 0 60420 33300.00000 0 17839011.663 17112951.449 6282268.269 10 0 60420 34200.00000 0 18319483.104 17468364.572 3146282.893 10 0 60420 35100.00000 0 18548654.419 17512473.268 -50830.759 10 0 60420 36000.00000 0 18484522.847 17280474.127 -3246959.094 10 0 60420 36900.00000 0 18094755.201 16816634.248 -6380034.534 10 0 60420 37800.00000 0 17358229.528 16172243.496 -9389241.857 10 0 60420 38700.00000 0 16266118.689 15403288.437 -12216197.818 10 0 60420 39600.00000 0 14822470.064 14567946.836 -14806081.033 10 0 60420 40500.00000 0 13044256.810 13724008.845 -17108690.348 10 0 60420 41400.00000 0 10960898.257 12926333.642 -19079411.692 10 0 60420 42300.00000 0 8613269.063 12224448.424 -20680075.254 10 0 60420 43200.00000 0 6052237.967 11660390.298 -21879687.300 10 0 60420 44100.00000 0 3336796.197 11266881.167 -22655023.364 10 0 60420 45000.00000 0 531852.473 11065911.583 -22991072.216 10 0 60420 45900.00000 0 -2294215.023 11067792.422 -22881322.783 10 0 60420 46800.00000 0 -5072149.407 11270713.732 -22327888.957 10 0 60420 47700.00000 0 -7734442.542 11660829.056 -21341470.073 10 0 60420 48600.00000 0 -10217891.580 12212861.806 -19941147.698 10 0 60420 49500.00000 0 -12465979.899 12891208.593 -18154022.152 10 0 60420 50400.00000 0 -14430984.677 13651493.766 -16014695.100 10 0 60420 51300.00000 0 -16075724.492 14442510.530 -13564607.306 10 0 60420 52200.00000 0 -17374874.869 15208467.689 -10851243.382 10 0 60420 53100.00000 0 -18315797.499 15891448.037 -7927218.052 10 0 60420 54000.00000 0 -18898848.814 16433975.166 -4849260.909 10 0 60420 54900.00000 0 -19137155.190 16781580.492 -1677118.779 10 0 60420 55800.00000 0 -19055864.430 16885261.869 1527603.151 10 0 60420 56700.00000 0 -18690905.117 16703729.266 4702638.941 10 0 60420 57600.00000 0 -18087306.384 16205341.798 7786274.624 10 0 60420 58500.00000 0 -17297149.204 15369653.070 10718551.957 10 0 60420 59400.00000 0 -16377236.029 14188498.238 13442439.198 10 0 60420 60300.00000 0 -15386577.571 12666575.474 15904945.509 10 0 60420 61200.00000 0 -14383803.284 10821495.756 18058156.739 10 0 60420 62100.00000 0 -13424605.334 8683297.469 19860172.003 10 0 60420 63000.00000 0 -12559324.335 6293444.796 21275922.543 10 0 60420 63900.00000 0 -11830779.024 3703350.673 22277856.772 10 0 60420 64800.00000 0 -11272431.586 972485.046 22846478.171 10 0 60420 65700.00000 0 -10906966.068 -1833853.470 22970725.616 10 0 60420 66600.00000 0 -10745339.740 -4647010.278 22648188.828 10 0 60420 67500.00000 0 -10786347.250 -7397589.369 21885154.834 10 0 60420 68400.00000 0 -11016715.696 -10018101.450 20696484.582 10 0 60420 69300.00000 0 -11411726.314 -12445535.760 19105322.137 10 0 60420 70200.00000 0 -11936336.216 -14623748.968 17142642.071 10 0 60420 71100.00000 0 -12546752.424 -16505572.149 14846643.855 10 0 60420 72000.00000 0 -13192391.338 -18054548.597 12262005.070 10 0 60420 72900.00000 0 -13818140.360 -19246230.699 9439008.089 10 0 60420 73800.00000 0 -14366825.628 -20068982.681 6432557.419 10 0 60420 74700.00000 0 -14781780.981 -20524256.735 3301107.242 10 0 60420 75600.00000 0 -15009409.027 -20626332.308 105520.442 10 0 60420 76500.00000 0 -15001625.559 -20401530.926 -3092118.152 10 0 60420 77400.00000 0 -14718083.548 -19886941.017 -6229710.639 10 0 60420 78300.00000 0 -14128082.408 -19128707.771 -9246353.095 10 0 60420 79200.00000 0 -13212081.654 -18179961.237 -12083517.042 10 0 60420 80100.00000 0 -11962754.861 -17098470.840 -14686182.241 10 0 60420 81000.00000 0 -10385539.307 -15944125.659 -17003899.038 10 0 60420 81900.00000 0 -8498657.834 -14776346.737 -18991760.063 10 0 60420 82800.00000 0 -6332611.543 -13651540.094 -20611263.125 10 0 60420 83700.00000 0 -3929163.890 -12620697.012 -21831049.441 10 0 60420 84600.00000 0 -1339857.737 -11727241.595 -22627503.853 10 0 60420 85500.00000 0 1375873.931 -11005215.063 -22985206.287 10 0 60421 0.00000 0 4152926.011 -10477872.021 -22897226.519 10 0 60421 900.00000 0 6922978.796 -10156746.475 -22365256.946 10 0 60421 1800.00000 0 9617090.680 -10041226.771 -21399581.187 10 0 60421 2700.00000 0 12168324.892 -10118655.927 -20018878.848 10 0 60421 3600.00000 0 14514298.899 -10364953.781 -18249869.757 10 0 60421 4500.00000 0 16599553.240 -10745734.666 -16126803.894 10 0 60421 5400.00000 0 18377641.981 -11217874.003 -13690805.945 10 0 60421 6300.00000 0 19812858.570 -11731458.369 -10989086.196 10 0 60421 7200.00000 0 20881525.528 -12232037.332 -8074032.192 10 0 60421 8100.00000 0 21572794.313 -12663082.390 -5002197.968 10 0 60421 9000.00000 0 21888922.101 -12968549.382 -1833209.946 10 0 60421 9900.00000 0 21845013.718 -13095435.851 1371389.496 10 0 60421 10800.00000 0 21468239.633 -12996224.769 4549338.283 10 0 60421 11700.00000 0 20796562.982 -12631110.529 7638867.190 10 0 60421 12600.00000 0 19877029.280 -11969911.955 10579904.597 10 0 60421 13500.00000 0 18763691.135 -10993590.215 13315249.400 10 0 60421 14400.00000 0 17515255.661 -9695306.011 15791688.704 10 0 60421 15300.00000 0 16192554.130 -8080969.913 17961037.928 10 0 60421 16200.00000 0 14855940.867 -6169261.066 19781082.655 10 0 60421 17100.00000 0 13562731.290 -3991111.972 21216403.625 10 0 60421 18000.00000 0 12364787.229 -1588679.543 22239068.624 10 0 60421 18900.00000 0 11306351.258 986155.734 22829177.811 10 0 60421 19800.00000 0 10422221.142 3673700.876 22975251.909 10 0 60421 20700.00000 0 9736340.982 6408692.791 22674455.813 10 0 60421 21600.00000 0 9260867.974 9122779.205 21932653.344 10 0 60421 22500.00000 0 8995753.543 11747135.297 20764292.140 10 0 60421 23400.00000 0 8928855.910 14215107.495 19192120.919 10 0 60421 24300.00000 0 9036578.616 16464774.633 17246744.631 10 0 60421 25200.00000 0 9285007.388 18441320.160 14966026.082 10 0 60421 26100.00000 0 9631496.580 20099116.800 12394345.745 10 0 60421 27000.00000 0 10026637.410 21403437.177 9581734.250 10 0 60421 27900.00000 0 10416524.039 22331719.580 6582894.648 10 0 60421 28800.00000 0 10745220.912 22874336.684 3456133.852 10 0 60421 29700.00000 0 10957326.236 23034836.099 262224.508 10 0 60421 30600.00000 0 11000522.521 22829643.772 -2936780.063 10 0 60421 31500.00000 0 10828005.691 22287244.007 -6078754.199 10 0 60421 32400.00000 0 10400689.569 21446871.795 -9102707.584 10 0 60421 33300.00000 0 9689092.226 20356773.630 -11949968.509 10 0 60421 34200.00000 0 8674824.225 19072110.902 -14565319.566 10 0 60421 35100.00000 0 7351615.742 17652594.697 -16898063.935 10 0 60421 36000.00000 0 5725838.962 16159951.709 -18903001.989 10 0 60421 36900.00000 0 3816503.376 14655327.641 -20541299.925 10 0 60421 37800.00000 0 1654723.511 13196736.621 -21781234.446 10 0 60421 38700.00000 0 -717319.489 11836662.812 -22598800.021 10 0 60421 39600.00000 0 -3247880.134 10619913.742 -22978167.833 10 0 60421 40500.00000 0 -5877553.385 9581814.123 -22911988.333 10 0 60421 41400.00000 0 -8541504.177 8746814.628 -22401532.056 10 0 60421 42300.00000 0 -11171930.455 8127572.886 -21456666.210 10 0 60421 43200.00000 0 -13700658.931 7724544.309 -20095667.380 10 0 60421 44100.00000 0 -16061767.149 7526099.340 -18344873.502 10 0 60421 45000.00000 0 -18194124.101 7509161.887 -16238181.154 10 0 60421 45900.00000 0 -20043744.701 7640342.056 -13816396.979 10 0 60421 46800.00000 0 -21565860.804 7877515.663 -11126454.804 10 0 60421 47700.00000 0 -22726622.678 8171784.181 -8220512.726 10 0 60421 48600.00000 0 -23504360.265 8469732.703 -5154946.912 10 0 60421 49500.00000 0 -23890351.210 8715890.648 -1989261.047 10 0 60421 50400.00000 0 -23889063.182 8855290.999 1215067.636 10 0 60421 51300.00000 0 -23517860.327 8836019.499 4395783.261 10 0 60421 52200.00000 0 -22806185.787 8611645.185 7491063.692 10 0 60421 53100.00000 0 -21794254.642 8143428.502 10440726.265 10 0 60421 54000.00000 0 -20531312.289 7402212.423 13187402.846 10 0 60421 54900.00000 0 -19073531.560 6369915.164 15677660.738 10 0 60421 55800.00000 0 -17481637.322 5040560.021 17863047.051 10 0 60421 56700.00000 0 -15818358.753 3420797.278 19701035.768 10 0 60421 57600.00000 0 -14145816.633 1529894.666 21155858.788 10 0 60421 58500.00000 0 -12522955.687 -600804.741 22199204.606 10 0 60421 59400.00000 0 -11003129.874 -2928935.830 22810771.023 10 0 60421 60300.00000 0 -9631941.898 -5402633.130 22978661.186 10 0 60421 61200.00000 0 -8445427.403 -7962458.240 22699615.346 10 0 60421 62100.00000 0 -7468659.565 -10543653.399 21979073.908 10 0 60421 63000.00000 0 -6714832.054 -13078627.842 20831070.598 10 0 60421 63900.00000 0 -6184858.067 -15499573.697 19277957.843 10 0 60421 64800.00000 0 -5867501.371 -17741102.713 17349969.668 10 0 60421 65700.00000 0 -5740032.803 -19742794.114 15084630.606 10 0 60421 66600.00000 0 -5769383.493 -21451547.435 12526022.134 10 0 60421 67500.00000 0 -5913745.064 -22823642.366 9723921.027 10 0 60421 68400.00000 0 -6124548.143 -23826419.838 6732826.583 10 0 60421 69300.00000 0 -6348734.526 -24439514.474 3610896.023 10 0 60421 70200.00000 0 -6531225.924 -24655587.462 418809.232 10 0 60421 71100.00000 0 -6617483.955 -24480529.957 -2781414.571 10 0 60421 72000.00000 0 -6556052.300 -23933129.426 -5927624.624 10 0 60421 72900.00000 0 -6300972.857 -23044214.040 -8958746.924 10 0 60421 73800.00000 0 -5813973.227 -21855312.044 -11815969.265 10 0 60421 74700.00000 0 -5066332.774 -20416883.360 -14443879.795 10 0 60421 75600.00000 0 -4040348.186 -18786198.367 -16791537.181 10 0 60421 76500.00000 0 -2730336.480 -17024953.249 -18813452.031 10 0 60421 77400.00000 0 -1143132.907 -15196721.971 -20470461.174 10 0 60421 78300.00000 0 701937.701 -13364351.264 -21730478.720 10 0 60421 79200.00000 0 2773615.668 -11587406.957 -22569110.281 10 0 60421 80100.00000 0 5029765.064 -9919777.492 -22970119.384 10 0 60421 81000.00000 0 7418893.141 -8407533.583 -22925737.803 10 0 60421 81900.00000 0 9882068.696 -7087132.140 -22436814.381 10 0 60421 82800.00000 0 12355160.966 -5984038.290 -21512799.666 10 0 60421 83700.00000 0 14771307.415 -5111821.896 -20171566.574 10 0 60421 84600.00000 0 17063509.251 -4471765.446 -18439070.099 10 0 60421 85500.00000 0 19167247.918 -4052999.021 -16348851.948 99